Regional Weather Roundup
Issued by NWS Midland/Odessa, TX

Home | Current Version | Previous Version | Text Only | Print | Product List | Glossary On
Versions: 1 2 3 4 5 6 7 8 9 10 11 12 13 14 15 16 17 18 19 20 21 22 23 24 25 26 27 28 29 30 31 32 33 34 35 36 37 38 39 40 41 42 43 44 45 46 47 48 49 50
000
ASUS44 KMAF 241710
RWRMAF
MIDLAND AREA WEATHER ROUNDUP
NATIONAL WEATHER SERVICE MIDLAND TX
1100 AM CST TUE JAN 24 2017

...IN SOUTHWEST TEXAS AND SOUTHEAST NEW MEXICO...

CITY           SKY/WX    TMP DP  RH WIND       PRES   REMARKS
ALPINE         SUNNY     69  22  16 SW18G28   29.85S
ANDREWS        FAIR      63  30  28 W23G29    29.73R
ARTESIA        SUNNY     57  28  33 W36G41    29.73S
BIG SPRING     SUNNY     63  34  33 W10       29.75R
CARLSBAD       SUNNY     58  30  34 W33G44    29.72R
DRYDEN           N/A     61  35  37 VRB5      29.74S
FORT STOCKTON  SUNNY     76  27  16 W10       29.73S
GUAD PASS      SUNNY     48  29  47 SW35G48   29.78R WCI  39
HOBBS          SUNNY     57  32  38 SW29G37   29.75R
MARFA          SUNNY     68  24  19 SW24G30   29.85S
MIDLAND AIRPK  SUNNY     66  32  28 W15       29.73R
MIDLAND INTL   SUNNY     67  30  25 W24G30    29.72R
ODESSA         SUNNY     66  30  26 W21       29.73R
PECOS          SUNNY     64  32  30 N16       29.73S
PRESIDIO       FAIR      76  22  13 S10       29.78R
SEMINOLE       SUNNY     60  32  34 W23G29    29.75R
SNYDER         SUNNY     62  36  37 SW15      29.72R
WINK           SUNNY     64  30  27 W25G33    29.73R
$$
...OTHER STATIONS IN TEXAS...

CITY           SKY/WX    TMP DP  RH WIND       PRES   REMARKS
ABILENE        MOSUNNY   65  35  33 SW18G26   29.68R
AMARILLO       SUNNY     55  33  43 W25G32    29.60S
AUSTIN         MOSUNNY   70  56  61 SW20G25   29.79R
BROWNSVILLE    SUNNY     81  66  60 S25G32    29.81F
CORPUS CHRISTI MOSUNNY   77  63  61 S24       29.76F
DALLAS FTW     PTSUNNY   69  41  36 S20G25    29.66R
DEL RIO        SUNNY     65  41  41 SE8       29.74S
EL PASO        MOSUNNY   49  28  44 W14G25    29.86R
HOUSTON INT    MOSUNNY   74  59  59 S13G24    29.84S
LUBBOCK        MOSUNNY   62  31  31 W22G29    29.68R
SAN ANGELO     MOSUNNY   75  36  24 S10       29.69S
SAN ANTONIO    MOSUNNY   66  51  58 S7        29.81S
WACO           SUNNY     68  51  54 S15       29.73S
WICHITA FALLS  NOT AVBL
$$
...OTHER LOCATIONS IN NEW MEXICO...

CITY           SKY/WX    TMP DP  RH WIND       PRES   REMARKS
ALAMAGORDO     SUNNY     48  25  40 W12       29.87R
ALBUQUERQUE    MOSUNNY   37  17  44 W28G36    29.75R WCI  25
CANNON AFB     SUNNY     48  33  55 NW21G29   29.67R
CLOVIS         SUNNY     48  32  53 W23G32    29.67R
HOLLOMAN AFB   SUNNY     48  28  45 SW18      29.88R
ROSWELL        SUNNY     56  23  27 W30G39    29.72R
RUIDOSO        CLOUDY    37  19  48 W20       29.76R WCI  27
SANTA FE       PTSUNNY   32  22  66 W21G32    29.69R WCI  20
TRUTH OR CONSE SUNNY     44  17  33 W20G25    29.81R WCI  36
TUCUMCARI      SUNNY     50  28  42 W26G33    29.63R
$$



USA.gov is the U.S. government's official web portal to all federal, state and local government web resources and services.